Time,TemperatureF,DewpointF,PressureIn,WindDirection,WindDirectionDegrees,WindSpeedMPH,WindSpeedGustMPH,Humidity,HourlyPrecipIn,Conditions,Clouds,dailyrainin,SoftwareType,DateUTC
2013-05-16 00:01:00,67.3,47.5,30.04,East,90,6.0,8.0,49,0.00,,,0.00,meteohub,2013-05-16 05:01:00,
2013-05-16 00:06:00,67.1,46.8,30.05,East,90,4.0,8.0,48,0.00,,,0.00,meteohub,2013-05-16 05:06:00,
2013-05-16 00:11:00,66.9,47.1,30.05,SE,135,7.0,8.0,49,0.00,,,0.00,meteohub,2013-05-16 05:11:00,
2013-05-16 00:16:00,66.7,46.9,30.05,SE,135,4.0,8.0,49,0.00,,,0.00,meteohub,2013-05-16 05:16:00,
2013-05-16 00:21:00,66.6,46.8,30.05,SE,135,6.0,7.0,49,0.00,,,0.00,meteohub,2013-05-16 05:21:00,
2013-05-16 00:26:00,66.4,46.6,30.05,SE,135,4.0,7.0,49,0.00,,,0.00,meteohub,2013-05-16 05:26:00,
2013-05-16 00:31:00,66.0,47.3,30.06,East,90,3.0,7.0,51,0.00,,,0.00,meteohub,2013-05-16 05:31:00,
2013-05-16 00:36:00,65.8,47.1,30.05,East,90,3.0,7.0,51,0.00,,,0.00,meteohub,2013-05-16 05:36:00,
2013-05-16 00:41:00,65.7,47.1,30.06,NE,45,3.0,5.0,51,0.00,,,0.00,meteohub,2013-05-16 05:41:00,
2013-05-16 00:46:00,65.5,47.5,30.06,SE,135,3.0,5.0,52,0.00,,,0.00,meteohub,2013-05-16 05:46:00,
2013-05-16 00:51:00,65.3,47.3,30.05,East,90,3.0,5.0,52,0.00,,,0.00,meteohub,2013-05-16 05:51:00,
2013-05-16 00:56:00,64.9,46.9,30.05,East,90,3.0,4.0,52,0.00,,,0.00,meteohub,2013-05-16 05:56:00,
2013-05-16 01:01:00,64.8,46.8,30.06,NE,45,4.0,4.0,52,0.00,,,0.00,meteohub,2013-05-16 06:01:00,
2013-05-16 01:06:00,64.8,46.8,30.06,NE,45,4.0,4.0,52,0.00,,,0.00,meteohub,2013-05-16 06:06:00,
2013-05-16 01:11:00,64.4,46.9,30.05,East,90,4.0,4.0,53,0.00,,,0.00,meteohub,2013-05-16 06:11:00,
2013-05-16 01:16:00,64.2,46.2,30.06,East,90,3.0,4.0,52,0.00,,,0.00,meteohub,2013-05-16 06:16:00,
2013-05-16 01:21:00,64.0,46.0,30.06,SE,135,3.0,4.0,52,0.00,,,0.00,meteohub,2013-05-16 06:21:00,
2013-05-16 01:26:00,63.9,46.4,30.05,East,90,3.0,4.0,53,0.00,,,0.00,meteohub,2013-05-16 06:26:00,
2013-05-16 01:31:00,63.7,46.2,30.06,East,90,3.0,4.0,53,0.00,,,0.00,meteohub,2013-05-16 06:31:00,
2013-05-16 01:36:00,63.5,46.0,30.05,East,90,3.0,3.0,53,0.00,,,0.00,meteohub,2013-05-16 06:36:00,
2013-05-16 01:41:00,63.3,46.4,30.06,East,90,4.0,4.0,54,0.00,,,0.00,meteohub,2013-05-16 06:41:00,
2013-05-16 01:46:00,63.3,46.4,30.06,East,90,4.0,4.0,54,0.00,,,0.00,meteohub,2013-05-16 06:46:00,
2013-05-16 01:51:00,63.5,46.6,30.06,SE,135,3.0,5.0,54,0.00,,,0.00,meteohub,2013-05-16 06:51:00,
2013-05-16 01:56:00,63.3,46.4,30.06,East,90,3.0,5.0,54,0.00,,,0.00,meteohub,2013-05-16 06:56:00,
2013-05-16 02:01:00,63.3,46.4,30.06,NE,45,2.0,5.0,54,0.00,,,0.00,meteohub,2013-05-16 07:01:00,
2013-05-16 02:06:00,63.1,46.8,30.06,East,90,2.0,4.0,55,0.00,,,0.00,meteohub,2013-05-16 07:06:00,
2013-05-16 02:11:00,63.0,46.6,30.06,NE,45,3.0,4.0,55,0.00,,,0.00,meteohub,2013-05-16 07:11:00,
2013-05-16 02:17:00,62.8,46.4,30.06,SE,135,2.0,4.0,55,0.00,,,0.00,meteohub,2013-05-16 07:17:00,
2013-05-16 02:22:00,62.8,46.4,30.05,East,90,2.0,4.0,55,0.00,,,0.00,meteohub,2013-05-16 07:22:00,
2013-05-16 02:27:00,62.4,46.9,30.06,East,90,2.0,3.0,57,0.00,,,0.00,meteohub,2013-05-16 07:27:00,
2013-05-16 02:32:00,62.1,47.1,30.06,East,90,2.0,4.0,58,0.00,,,0.00,meteohub,2013-05-16 07:32:00,
2013-05-16 02:37:00,61.9,46.9,30.06,East,90,2.0,4.0,58,0.00,,,0.00,meteohub,2013-05-16 07:37:00,
2013-05-16 02:42:00,61.9,46.9,30.06,East,90,2.0,4.0,58,0.00,,,0.00,meteohub,2013-05-16 07:42:00,
2013-05-16 02:47:00,61.7,46.8,30.06,East,90,2.0,4.0,58,0.00,,,0.00,meteohub,2013-05-16 07:47:00,
2013-05-16 02:52:00,61.5,47.1,30.06,NE,45,1.0,3.0,59,0.00,,,0.00,meteohub,2013-05-16 07:52:00,
2013-05-16 02:57:00,60.8,46.4,30.06,NE,45,3.0,3.0,59,0.00,,,0.00,meteohub,2013-05-16 07:57:00,
2013-05-16 03:02:00,60.4,46.9,30.06,NE,45,2.0,3.0,61,0.00,,,0.00,meteohub,2013-05-16 08:02:00,
2013-05-16 03:07:00,60.4,46.9,30.06,NE,45,2.0,3.0,61,0.00,,,0.00,meteohub,2013-05-16 08:07:00,
2013-05-16 03:12:00,59.5,46.6,30.06,East,90,2.0,3.0,62,0.00,,,0.00,meteohub,2013-05-16 08:12:00,
2013-05-16 03:17:00,59.4,46.4,30.06,East,90,2.0,2.0,62,0.00,,,0.00,meteohub,2013-05-16 08:17:00,
2013-05-16 03:22:00,59.2,46.2,30.06,East,90,1.0,2.0,62,0.00,,,0.00,meteohub,2013-05-16 08:22:00,
2013-05-16 03:27:00,59.0,46.4,30.06,East,90,2.0,2.0,63,0.00,,,0.00,meteohub,2013-05-16 08:27:00,
2013-05-16 03:32:00,59.0,46.4,30.06,SE,135,2.0,3.0,63,0.00,,,0.00,meteohub,2013-05-16 08:32:00,
2013-05-16 03:37:00,59.2,46.6,30.06,East,90,3.0,4.0,63,0.00,,,0.00,meteohub,2013-05-16 08:37:00,
2013-05-16 03:42:00,59.2,46.6,30.06,East,90,4.0,4.0,63,0.00,,,0.00,meteohub,2013-05-16 08:42:00,
2013-05-16 03:47:00,59.0,46.4,30.06,ESE,113,2.0,4.0,63,0.00,,,0.00,meteohub,2013-05-16 08:47:00,
2013-05-16 03:52:00,59.0,46.4,30.06,East,90,3.0,4.0,63,0.00,,,0.00,meteohub,2013-05-16 08:52:00,
2013-05-16 03:57:00,59.2,46.6,30.06,East,90,4.0,5.0,63,0.00,,,0.00,meteohub,2013-05-16 08:57:00,
2013-05-16 04:02:00,59.4,46.8,30.06,East,90,5.0,5.0,63,0.00,,,0.00,meteohub,2013-05-16 09:02:00,
2013-05-16 04:07:00,59.4,46.8,30.06,East,90,2.0,5.0,63,0.00,,,0.00,meteohub,2013-05-16 09:07:00,
2013-05-16 04:12:00,59.4,46.4,30.07,East,90,2.0,5.0,62,0.00,,,0.00,meteohub,2013-05-16 09:12:00,
2013-05-16 04:17:00,59.4,46.4,30.07,SE,135,2.0,5.0,62,0.00,,,0.00,meteohub,2013-05-16 09:17:00,
2013-05-16 04:22:00,59.2,46.6,30.07,SE,135,0.0,4.0,63,0.00,,,0.00,meteohub,2013-05-16 09:22:00,
2013-05-16 04:27:00,58.6,46.6,30.06,NE,45,0.0,4.0,64,0.00,,,0.00,meteohub,2013-05-16 09:27:00,
2013-05-16 04:32:00,58.3,46.2,30.06,SE,135,1.0,3.0,64,0.00,,,0.00,meteohub,2013-05-16 09:32:00,
2013-05-16 04:37:00,58.1,46.4,30.07,SE,135,2.0,2.0,65,0.00,,,0.00,meteohub,2013-05-16 09:37:00,
2013-05-16 04:42:00,57.9,46.2,30.06,East,90,2.0,2.0,65,0.00,,,0.00,meteohub,2013-05-16 09:42:00,
2013-05-16 04:47:00,57.7,46.0,30.06,East,90,2.0,4.0,65,0.00,,,0.00,meteohub,2013-05-16 09:47:00,
2013-05-16 04:52:00,57.4,46.0,30.06,NE,45,2.0,4.0,66,0.00,,,0.00,meteohub,2013-05-16 09:52:00,
2013-05-16 04:57:00,57.0,46.2,30.07,South,180,0.0,4.0,67,0.00,,,0.00,meteohub,2013-05-16 09:57:00,
2013-05-16 05:02:00,56.7,46.2,30.07,SW,225,0.0,2.0,68,0.00,,,0.00,meteohub,2013-05-16 10:02:00,
2013-05-16 05:07:00,56.7,46.2,30.07,SW,225,0.0,2.0,68,0.00,,,0.00,meteohub,2013-05-16 10:07:00,
2013-05-16 05:12:00,55.8,45.7,30.07,SW,225,0.0,1.0,69,0.00,,,0.00,meteohub,2013-05-16 10:12:00,
2013-05-16 05:17:00,55.4,45.9,30.07,East,90,1.0,0.0,70,0.00,,,0.00,meteohub,2013-05-16 10:17:00,
2013-05-16 05:22:00,55.0,45.9,30.08,East,90,1.0,1.0,71,0.00,,,0.00,meteohub,2013-05-16 10:22:00,
2013-05-16 05:27:00,54.9,45.7,30.08,East,90,1.0,1.0,71,0.00,,,0.00,meteohub,2013-05-16 10:27:00,
2013-05-16 05:32:00,54.7,45.5,30.07,NE,45,2.0,2.0,71,0.00,,,0.00,meteohub,2013-05-16 10:32:00,
2013-05-16 05:37:00,54.1,45.3,30.07,SE,135,2.0,2.0,72,0.00,,,0.00,meteohub,2013-05-16 10:37:00,
2013-05-16 05:42:00,54.1,45.7,30.08,East,90,2.0,2.0,73,0.00,,,0.00,meteohub,2013-05-16 10:42:00,
2013-05-16 05:47:00,54.7,46.2,30.08,East,90,1.0,2.0,73,0.00,,,0.00,meteohub,2013-05-16 10:47:00,
2013-05-16 05:52:00,54.9,46.4,30.08,SE,135,1.0,2.0,73,0.00,,,0.00,meteohub,2013-05-16 10:52:00,
2013-05-16 05:57:00,54.9,46.4,30.09,SE,135,1.0,2.0,73,0.00,,,0.00,meteohub,2013-05-16 10:57:00,
2013-05-16 06:02:00,54.5,46.0,30.09,SE,135,0.0,2.0,73,0.00,,,0.00,meteohub,2013-05-16 11:02:00,
2013-05-16 06:07:00,54.1,45.7,30.09,SE,135,0.0,2.0,73,0.00,,,0.00,meteohub,2013-05-16 11:07:00,
2013-05-16 06:12:00,54.0,45.9,30.09,SW,225,0.0,1.0,74,0.00,,,0.00,meteohub,2013-05-16 11:12:00,
2013-05-16 06:17:00,54.0,46.2,30.09,South,180,0.0,0.0,75,0.00,,,0.00,meteohub,2013-05-16 11:17:00,
2013-05-16 06:22:00,54.0,46.2,30.09,East,90,0.0,0.0,75,0.00,,,0.00,meteohub,2013-05-16 11:22:00,
2013-05-16 06:27:00,54.0,46.2,30.09,SW,225,0.0,0.0,75,0.00,,,0.00,meteohub,2013-05-16 11:27:00,
2013-05-16 06:32:00,54.1,46.8,30.09,SW,225,0.0,0.0,76,0.00,,,0.00,meteohub,2013-05-16 11:32:00,
2013-05-16 06:37:00,54.5,47.1,30.10,East,90,0.0,0.0,76,0.00,,,0.00,meteohub,2013-05-16 11:37:00,
2013-05-16 06:42:00,54.9,47.5,30.10,SW,225,0.0,0.0,76,0.00,,,0.00,meteohub,2013-05-16 11:42:00,
2013-05-16 06:47:00,55.2,47.8,30.10,SE,135,0.0,0.0,76,0.00,,,0.00,meteohub,2013-05-16 11:47:00,
2013-05-16 06:52:00,55.8,48.0,30.10,SE,135,2.0,2.0,75,0.00,,,0.00,meteohub,2013-05-16 11:52:00,
2013-05-16 06:57:00,56.3,48.2,30.10,SE,135,0.0,2.0,74,0.00,,,0.00,meteohub,2013-05-16 11:57:00,
2013-05-16 07:02:00,56.8,48.6,30.10,SW,225,1.0,2.0,74,0.00,,,0.00,meteohub,2013-05-16 12:02:00,
2013-05-16 07:07:00,56.8,48.6,30.11,SW,225,1.0,2.0,74,0.00,,,0.00,meteohub,2013-05-16 12:07:00,
2013-05-16 07:12:00,58.3,49.3,30.11,SW,225,2.0,2.0,72,0.00,,,0.00,meteohub,2013-05-16 12:12:00,
2013-05-16 07:17:00,59.2,49.1,30.11,SSW,203,6.0,6.0,69,0.00,,,0.00,meteohub,2013-05-16 12:17:00,
2013-05-16 07:22:00,59.7,48.7,30.11,South,180,3.0,6.0,67,0.00,,,0.00,meteohub,2013-05-16 12:22:00,
2013-05-16 07:27:00,60.1,48.7,30.09,SW,225,2.0,6.0,66,0.00,,,0.00,meteohub,2013-05-16 12:27:00,
2013-05-16 07:32:00,60.6,49.3,30.09,West,270,2.0,6.0,66,0.00,,,0.00,meteohub,2013-05-16 12:32:00,
2013-05-16 07:37:00,61.2,48.4,30.09,SW,225,3.0,4.0,63,0.00,,,0.00,meteohub,2013-05-16 12:37:00,
2013-05-16 07:42:00,61.5,48.4,30.09,SW,225,1.0,4.0,62,0.00,,,0.00,meteohub,2013-05-16 12:42:00,
2013-05-16 07:47:00,62.1,48.9,30.10,SW,225,2.0,4.0,62,0.00,,,0.00,meteohub,2013-05-16 12:47:00,
2013-05-16 07:52:00,62.4,48.7,30.10,West,270,2.0,4.0,61,0.00,,,0.00,meteohub,2013-05-16 12:52:00,
2013-05-16 07:57:00,62.6,48.6,30.11,SW,225,2.0,3.0,60,0.00,,,0.00,meteohub,2013-05-16 12:57:00,
2013-05-16 08:02:00,62.8,48.7,30.11,West,270,2.0,3.0,60,0.00,,,0.00,meteohub,2013-05-16 13:02:00,
2013-05-16 08:07:00,63.5,49.3,30.11,NW,315,2.0,2.0,60,0.00,,,0.00,meteohub,2013-05-16 13:07:00,
2013-05-16 08:12:00,64.0,49.5,30.11,SW,225,3.0,3.0,59,0.00,,,0.00,meteohub,2013-05-16 13:12:00,
2013-05-16 08:17:00,64.4,48.9,30.12,SW,225,2.0,4.0,57,0.00,,,0.00,meteohub,2013-05-16 13:17:00,
2013-05-16 08:22:00,64.8,49.1,30.12,SW,225,2.0,4.0,57,0.00,,,0.00,meteohub,2013-05-16 13:22:00,
2013-05-16 08:27:00,65.3,49.6,30.12,SSW,203,3.0,4.0,57,0.00,,,0.00,meteohub,2013-05-16 13:27:00,
2013-05-16 08:32:00,65.7,50.0,30.12,SW,225,2.0,4.0,57,0.00,,,0.00,meteohub,2013-05-16 13:32:00,
2013-05-16 08:37:00,66.0,49.8,30.12,West,270,1.0,4.0,56,0.00,,,0.00,meteohub,2013-05-16 13:37:00,
2013-05-16 08:42:00,66.9,50.2,30.12,NW,315,2.0,3.0,55,0.00,,,0.00,meteohub,2013-05-16 13:42:00,
2013-05-16 08:47:00,68.0,49.6,30.12,SW,225,2.0,2.0,52,0.00,,,0.00,meteohub,2013-05-16 13:47:00,
2013-05-16 08:52:00,68.5,49.1,30.12,West,270,4.0,4.0,50,0.00,,,0.00,meteohub,2013-05-16 13:52:00,
2013-05-16 08:57:00,68.7,49.3,30.12,West,270,4.0,4.0,50,0.00,,,0.00,meteohub,2013-05-16 13:57:00,
2013-05-16 09:02:00,69.1,49.6,30.12,NW,315,4.0,4.0,50,0.00,,,0.00,meteohub,2013-05-16 14:02:00,
2013-05-16 09:07:00,70.3,49.1,30.12,West,270,3.0,4.0,47,0.00,,,0.00,meteohub,2013-05-16 14:07:00,
2013-05-16 09:12:00,70.3,48.6,30.12,West,270,4.0,4.0,46,0.00,,,0.00,meteohub,2013-05-16 14:12:00,
2013-05-16 09:17:00,70.7,47.7,30.12,WNW,293,6.0,6.0,44,0.00,,,0.00,meteohub,2013-05-16 14:17:00,
2013-05-16 09:22:00,70.9,47.8,30.12,North,0,4.0,6.0,44,0.00,,,0.00,meteohub,2013-05-16 14:22:00,
2013-05-16 09:27:00,71.4,48.9,30.12,NW,315,4.0,6.0,45,0.00,,,0.00,meteohub,2013-05-16 14:27:00,
2013-05-16 09:32:00,72.0,47.7,30.12,NW,315,2.0,6.0,42,0.00,,,0.00,meteohub,2013-05-16 14:32:00,
2013-05-16 09:37:00,72.7,47.7,30.12,West,270,3.0,5.0,41,0.00,,,0.00,meteohub,2013-05-16 14:37:00,
2013-05-16 09:42:00,72.9,47.1,30.13,WNW,293,4.0,5.0,40,0.00,,,0.00,meteohub,2013-05-16 14:42:00,
2013-05-16 09:47:00,73.4,48.2,30.13,North,0,7.0,7.0,41,0.00,,,0.00,meteohub,2013-05-16 14:47:00,
2013-05-16 09:52:00,73.8,48.0,30.13,NW,315,5.0,7.0,40,0.00,,,0.00,meteohub,2013-05-16 14:52:00,
2013-05-16 09:57:00,74.1,47.7,30.12,NW,315,7.0,7.0,39,0.00,,,0.00,meteohub,2013-05-16 14:57:00,
2013-05-16 10:02:00,74.5,47.8,30.12,NW,315,4.0,8.0,39,0.00,,,0.00,meteohub,2013-05-16 15:02:00,
2013-05-16 10:07:00,74.8,47.5,30.12,North,0,8.0,8.0,38,0.00,,,0.00,meteohub,2013-05-16 15:07:00,
2013-05-16 10:12:00,74.8,46.0,30.12,NW,315,6.0,9.0,36,0.00,,,0.00,meteohub,2013-05-16 15:12:00,
2013-05-16 10:17:00,74.8,45.3,30.12,West,270,5.0,9.0,35,0.00,,,0.00,meteohub,2013-05-16 15:17:00,
2013-05-16 10:22:00,75.2,44.1,30.12,NW,315,7.0,10.0,33,0.00,,,0.00,meteohub,2013-05-16 15:22:00,
2013-05-16 10:27:00,76.3,45.1,30.12,North,0,12.0,12.0,33,0.00,,,0.00,meteohub,2013-05-16 15:27:00,
2013-05-16 10:32:00,76.1,44.1,30.12,NE,45,9.0,12.0,32,0.00,,,0.00,meteohub,2013-05-16 15:32:00,
2013-05-16 10:37:00,75.9,43.9,30.12,NW,315,5.0,12.0,32,0.00,,,0.00,meteohub,2013-05-16 15:37:00,
2013-05-16 10:42:00,76.6,45.3,30.12,NW,315,12.0,12.0,33,0.00,,,0.00,meteohub,2013-05-16 15:42:00,
2013-05-16 10:47:00,76.8,44.8,30.12,West,270,7.0,12.0,32,0.00,,,0.00,meteohub,2013-05-16 15:47:00,
2013-05-16 10:52:00,76.8,44.8,30.12,NW,315,4.0,12.0,32,0.00,,,0.00,meteohub,2013-05-16 15:52:00,
2013-05-16 10:57:00,76.8,44.8,30.12,NW,315,5.0,12.0,32,0.00,,,0.00,meteohub,2013-05-16 15:57:00,
2013-05-16 11:02:00,77.0,43.2,30.12,NW,315,8.0,11.0,30,0.00,,,0.00,meteohub,2013-05-16 16:02:00,
2013-05-16 11:07:00,77.0,43.2,30.11,NW,315,8.0,8.0,30,0.00,,,0.00,meteohub,2013-05-16 16:07:00,
2013-05-16 11:12:00,76.8,44.8,30.11,North,0,4.0,8.0,32,0.00,,,0.00,meteohub,2013-05-16 16:12:00,
2013-05-16 11:17:00,77.2,43.3,30.11,NW,315,4.0,8.0,30,0.00,,,0.00,meteohub,2013-05-16 16:17:00,
2013-05-16 11:22:00,77.9,44.8,30.11,North,0,10.0,10.0,31,0.00,,,0.00,meteohub,2013-05-16 16:22:00,
2013-05-16 11:27:00,78.6,45.5,30.11,North,0,6.0,10.0,31,0.00,,,0.00,meteohub,2013-05-16 16:27:00,
2013-05-16 11:32:00,78.6,44.6,30.11,West,270,5.0,10.0,30,0.00,,,0.00,meteohub,2013-05-16 16:32:00,
2013-05-16 11:37:00,77.9,44.1,30.11,NW,315,8.0,10.0,30,0.00,,,0.00,meteohub,2013-05-16 16:37:00,
2013-05-16 11:42:00,78.3,44.2,30.11,NW,315,6.0,9.0,30,0.00,,,0.00,meteohub,2013-05-16 16:42:00,
2013-05-16 11:47:00,78.3,44.2,30.10,West,270,6.0,8.0,30,0.00,,,0.00,meteohub,2013-05-16 16:47:00,
2013-05-16 11:52:00,78.6,43.7,30.10,West,270,4.0,9.0,29,0.00,,,0.00,meteohub,2013-05-16 16:52:00,
2013-05-16 11:57:00,78.6,43.7,30.10,NW,315,7.0,9.0,29,0.00,,,0.00,meteohub,2013-05-16 16:57:00,
2013-05-16 12:02:00,79.0,41.2,30.10,NW,315,5.0,9.0,26,0.00,,,0.00,meteohub,2013-05-16 17:02:00,
2013-05-16 12:07:00,78.4,40.6,30.10,NW,315,4.0,9.0,26,0.00,,,0.00,meteohub,2013-05-16 17:07:00,
2013-05-16 12:12:00,78.8,42.1,30.10,West,270,6.0,9.0,27,0.00,,,0.00,meteohub,2013-05-16 17:12:00,
2013-05-16 12:17:00,78.8,42.1,30.10,North,0,5.0,9.0,27,0.00,,,0.00,meteohub,2013-05-16 17:17:00,
2013-05-16 12:22:00,79.2,41.4,30.09,West,270,3.0,11.0,26,0.00,,,0.00,meteohub,2013-05-16 17:22:00,
2013-05-16 12:27:00,79.2,43.2,30.09,NW,315,8.0,11.0,28,0.00,,,0.00,meteohub,2013-05-16 17:27:00,
2013-05-16 12:32:00,79.5,42.6,30.09,SW,225,2.0,11.0,27,0.00,,,0.00,meteohub,2013-05-16 17:32:00,
2013-05-16 12:37:00,80.1,42.1,30.09,SW,225,4.0,8.0,26,0.00,,,0.00,meteohub,2013-05-16 17:37:00,
2013-05-16 12:42:00,80.4,41.4,30.09,NW,315,5.0,8.0,25,0.00,,,0.00,meteohub,2013-05-16 17:42:00,
2013-05-16 12:47:00,79.9,39.9,30.09,NW,315,4.0,8.0,24,0.00,,,0.00,meteohub,2013-05-16 17:47:00,
2013-05-16 12:52:00,79.7,40.8,30.08,North,0,4.0,7.0,25,0.00,,,0.00,meteohub,2013-05-16 17:52:00,
2013-05-16 12:57:00,80.2,42.3,30.09,West,270,7.0,11.0,26,0.00,,,0.00,meteohub,2013-05-16 17:57:00,
2013-05-16 13:02:00,80.2,41.2,30.09,North,0,11.0,11.0,25,0.00,,,0.00,meteohub,2013-05-16 18:02:00,
2013-05-16 13:07:00,80.2,41.2,30.09,North,0,11.0,11.0,25,0.00,,,0.00,meteohub,2013-05-16 18:07:00,
2013-05-16 13:12:00,80.1,40.1,30.09,NW,315,6.0,11.0,24,0.00,,,0.00,meteohub,2013-05-16 18:12:00,
2013-05-16 13:17:00,80.1,38.8,30.09,West,270,7.0,11.0,23,0.00,,,0.00,meteohub,2013-05-16 18:17:00,
2013-05-16 13:22:00,80.1,38.8,30.08,SE,135,6.0,11.0,23,0.00,,,0.00,meteohub,2013-05-16 18:22:00,
2013-05-16 13:27:00,80.8,38.5,30.09,NW,315,8.0,9.0,22,0.00,,,0.00,meteohub,2013-05-16 18:27:00,
2013-05-16 13:32:00,81.3,37.6,30.09,NW,315,4.0,9.0,21,0.00,,,0.00,meteohub,2013-05-16 18:32:00,
2013-05-16 13:37:00,81.1,37.6,30.09,NW,315,6.0,8.0,21,0.00,,,0.00,meteohub,2013-05-16 18:37:00,
2013-05-16 13:42:00,81.5,37.8,30.09,NW,315,10.0,10.0,21,0.00,,,0.00,meteohub,2013-05-16 18:42:00,
2013-05-16 13:47:00,81.3,37.6,30.08,West,270,6.0,10.0,21,0.00,,,0.00,meteohub,2013-05-16 18:47:00,
2013-05-16 13:52:00,81.7,37.9,30.08,West,270,6.0,10.0,21,0.00,,,0.00,meteohub,2013-05-16 18:52:00,
2013-05-16 13:57:00,82.0,38.3,30.08,North,0,9.0,10.0,21,0.00,,,0.00,meteohub,2013-05-16 18:57:00,
2013-05-16 14:02:00,81.9,36.9,30.08,NW,315,10.0,12.0,20,0.00,,,0.00,meteohub,2013-05-16 19:02:00,
2013-05-16 14:07:00,81.3,36.5,30.08,North,0,9.0,14.0,20,0.00,,,0.00,meteohub,2013-05-16 19:07:00,
2013-05-16 14:12:00,81.5,37.8,30.08,NW,315,10.0,14.0,21,0.00,,,0.00,meteohub,2013-05-16 19:12:00,
2013-05-16 14:17:00,82.4,41.9,30.08,WNW,293,6.0,14.0,24,0.00,,,0.00,meteohub,2013-05-16 19:17:00,
2013-05-16 14:22:00,82.8,42.3,30.08,NW,315,8.0,14.0,24,0.00,,,0.00,meteohub,2013-05-16 19:22:00,
2013-05-16 14:27:00,82.2,37.2,30.08,NW,315,2.0,11.0,20,0.00,,,0.00,meteohub,2013-05-16 19:27:00,
2013-05-16 14:32:00,82.6,42.1,30.08,West,270,3.0,11.0,24,0.00,,,0.00,meteohub,2013-05-16 19:32:00,
2013-05-16 14:37:00,82.2,37.2,30.08,West,270,5.0,11.0,20,0.00,,,0.00,meteohub,2013-05-16 19:37:00,
2013-05-16 14:42:00,82.4,41.9,30.08,North,0,8.0,8.0,24,0.00,,,0.00,meteohub,2013-05-16 19:42:00,
2013-05-16 14:47:00,82.4,40.8,30.08,West,270,3.0,8.0,23,0.00,,,0.00,meteohub,2013-05-16 19:47:00,
2013-05-16 14:52:00,82.9,42.4,30.07,North,0,3.0,8.0,24,0.00,,,0.00,meteohub,2013-05-16 19:52:00,
2013-05-16 14:57:00,82.6,41.0,30.07,NE,45,4.0,8.0,23,0.00,,,0.00,meteohub,2013-05-16 19:57:00,
2013-05-16 15:02:00,82.4,41.9,30.07,WNW,293,4.0,8.0,24,0.00,,,0.00,meteohub,2013-05-16 20:02:00,
2013-05-16 15:07:00,82.4,41.9,30.06,WNW,293,4.0,8.0,24,0.00,,,0.00,meteohub,2013-05-16 20:07:00,
2013-05-16 15:12:00,82.9,41.4,30.06,NW,315,5.0,8.0,23,0.00,,,0.00,meteohub,2013-05-16 20:12:00,
2013-05-16 15:17:00,82.9,41.4,30.06,North,0,6.0,10.0,23,0.00,,,0.00,meteohub,2013-05-16 20:17:00,
2013-05-16 15:22:00,82.9,41.4,30.07,NW,315,3.0,10.0,23,0.00,,,0.00,meteohub,2013-05-16 20:22:00,
2013-05-16 15:27:00,83.3,41.7,30.07,South,180,8.0,10.0,23,0.00,,,0.00,meteohub,2013-05-16 20:27:00,
2013-05-16 15:32:00,82.6,41.0,30.06,North,0,7.0,8.0,23,0.00,,,0.00,meteohub,2013-05-16 20:32:00,
2013-05-16 15:37:00,82.4,40.8,30.07,West,270,5.0,9.0,23,0.00,,,0.00,meteohub,2013-05-16 20:37:00,
2013-05-16 15:42:00,82.8,41.2,30.07,West,270,5.0,9.0,23,0.00,,,0.00,meteohub,2013-05-16 20:42:00,
2013-05-16 15:47:00,82.2,35.8,30.07,West,270,4.0,9.0,19,0.00,,,0.00,meteohub,2013-05-16 20:47:00,
2013-05-16 15:52:00,82.4,40.8,30.07,SW,225,4.0,7.0,23,0.00,,,0.00,meteohub,2013-05-16 20:52:00,
2013-05-16 15:57:00,82.2,35.8,30.07,NE,45,3.0,7.0,19,0.00,,,0.00,meteohub,2013-05-16 20:57:00,
2013-05-16 16:02:00,82.9,41.4,30.07,North,0,8.0,8.0,23,0.00,,,0.00,meteohub,2013-05-16 21:02:00,
2013-05-16 16:07:00,82.6,41.0,30.07,ESE,113,4.0,8.0,23,0.00,,,0.00,meteohub,2013-05-16 21:07:00,
2013-05-16 16:12:00,82.9,41.4,30.07,NW,315,2.0,8.0,23,0.00,,,0.00,meteohub,2013-05-16 21:12:00,
2013-05-16 16:17:00,82.9,41.4,30.07,NW,315,4.0,8.0,23,0.00,,,0.00,meteohub,2013-05-16 21:17:00,
2013-05-16 16:22:00,83.3,41.7,30.07,NW,315,7.0,9.0,23,0.00,,,0.00,meteohub,2013-05-16 21:22:00,
2013-05-16 16:27:00,82.9,41.4,30.07,North,0,1.0,9.0,23,0.00,,,0.00,meteohub,2013-05-16 21:27:00,
2013-05-16 16:32:00,83.3,41.7,30.07,North,0,9.0,9.0,23,0.00,,,0.00,meteohub,2013-05-16 21:32:00,
2013-05-16 16:37:00,82.9,41.4,30.07,NW,315,7.0,11.0,23,0.00,,,0.00,meteohub,2013-05-16 21:37:00,
2013-05-16 16:42:00,82.9,41.4,30.07,NW,315,6.0,11.0,23,0.00,,,0.00,meteohub,2013-05-16 21:42:00,
2013-05-16 16:47:00,82.9,41.4,30.07,SW,225,4.0,11.0,23,0.00,,,0.00,meteohub,2013-05-16 21:47:00,
2013-05-16 16:52:00,82.8,41.2,30.07,West,270,4.0,10.0,23,0.00,,,0.00,meteohub,2013-05-16 21:52:00,
2013-05-16 16:57:00,82.0,35.8,30.06,NW,315,2.0,6.0,19,0.00,,,0.00,meteohub,2013-05-16 21:57:00,
2013-05-16 17:02:00,81.9,36.9,30.07,NW,315,5.0,8.0,20,0.00,,,0.00,meteohub,2013-05-16 22:02:00,
2013-05-16 17:07:00,81.9,36.9,30.06,NW,315,5.0,8.0,20,0.00,,,0.00,meteohub,2013-05-16 22:07:00,
2013-05-16 17:12:00,81.3,36.5,30.06,West,270,2.0,8.0,20,0.00,,,0.00,meteohub,2013-05-16 22:12:00,
2013-05-16 17:17:00,81.3,37.6,30.05,North,0,2.0,6.0,21,0.00,,,0.00,meteohub,2013-05-16 22:17:00,
2013-05-16 17:22:00,81.5,37.8,30.05,West,270,2.0,6.0,21,0.00,,,0.00,meteohub,2013-05-16 22:22:00,
2013-05-16 17:27:00,81.3,36.5,30.06,West,270,7.0,7.0,20,0.00,,,0.00,meteohub,2013-05-16 22:27:00,
2013-05-16 17:32:00,81.1,36.3,30.06,North,0,4.0,7.0,20,0.00,,,0.00,meteohub,2013-05-16 22:32:00,
2013-05-16 17:37:00,81.0,36.1,30.06,West,270,5.0,7.0,20,0.00,,,0.00,meteohub,2013-05-16 22:37:00,
2013-05-16 17:42:00,81.0,36.1,30.06,West,270,2.0,7.0,20,0.00,,,0.00,meteohub,2013-05-16 22:42:00,
2013-05-16 17:47:00,80.8,36.0,30.05,West,270,3.0,5.0,20,0.00,,,0.00,meteohub,2013-05-16 22:47:00,
2013-05-16 17:52:00,80.8,36.0,30.06,West,270,6.0,6.0,20,0.00,,,0.00,meteohub,2013-05-16 22:52:00,
2013-05-16 17:57:00,80.6,35.8,30.06,SW,225,2.0,6.0,20,0.00,,,0.00,meteohub,2013-05-16 22:57:00,
2013-05-16 18:02:00,80.4,36.9,30.05,NW,315,4.0,6.0,21,0.00,,,0.00,meteohub,2013-05-16 23:02:00,
2013-05-16 18:07:00,80.6,37.0,30.06,West,270,2.0,6.0,21,0.00,,,0.00,meteohub,2013-05-16 23:07:00,
2013-05-16 18:12:00,80.4,38.1,30.06,NW,315,4.0,5.0,22,0.00,,,0.00,meteohub,2013-05-16 23:12:00,
2013-05-16 18:17:00,80.2,37.9,30.06,West,270,4.0,8.0,22,0.00,,,0.00,meteohub,2013-05-16 23:17:00,
2013-05-16 18:22:00,80.1,37.8,30.06,NW,315,7.0,8.0,22,0.00,,,0.00,meteohub,2013-05-16 23:22:00,
2013-05-16 18:27:00,80.1,37.8,30.05,NW,315,2.0,8.0,22,0.00,,,0.00,meteohub,2013-05-16 23:27:00,
2013-05-16 18:32:00,79.9,37.6,30.05,West,270,4.0,8.0,22,0.00,,,0.00,meteohub,2013-05-16 23:32:00,
2013-05-16 18:37:00,79.7,37.6,30.05,SW,225,5.0,8.0,22,0.00,,,0.00,meteohub,2013-05-16 23:37:00,
2013-05-16 18:42:00,79.7,37.6,30.05,West,270,5.0,5.0,22,0.00,,,0.00,meteohub,2013-05-16 23:42:00,
2013-05-16 18:47:00,79.3,37.2,30.05,South,180,6.0,6.0,22,0.00,,,0.00,meteohub,2013-05-16 23:47:00,
2013-05-16 18:52:00,79.3,37.2,30.05,West,270,4.0,6.0,22,0.00,,,0.00,meteohub,2013-05-16 23:52:00,
2013-05-16 18:57:00,79.2,37.0,30.05,West,270,5.0,6.0,22,0.00,,,0.00,meteohub,2013-05-16 23:57:00,
2013-05-16 19:02:00,79.0,36.9,30.05,West,270,5.0,8.0,22,0.00,,,0.00,meteohub,2013-05-17 00:02:00,
2013-05-16 19:07:00,78.8,36.7,30.05,North,0,3.0,8.0,22,0.00,,,0.00,meteohub,2013-05-17 00:07:00,
2013-05-16 19:12:00,78.8,36.7,30.06,West,270,5.0,8.0,22,0.00,,,0.00,meteohub,2013-05-17 00:12:00,
2013-05-16 19:17:00,78.8,36.7,30.06,West,270,2.0,8.0,22,0.00,,,0.00,meteohub,2013-05-17 00:17:00,
2013-05-16 19:22:00,78.6,37.8,30.07,West,270,2.0,7.0,23,0.00,,,0.00,meteohub,2013-05-17 00:22:00,
2013-05-16 19:27:00,78.4,38.7,30.06,NW,315,2.0,5.0,24,0.00,,,0.00,meteohub,2013-05-17 00:27:00,
2013-05-16 19:32:00,78.3,37.4,30.07,West,270,6.0,6.0,23,0.00,,,0.00,meteohub,2013-05-17 00:32:00,
2013-05-16 19:37:00,78.3,37.4,30.07,South,180,4.0,7.0,23,0.00,,,0.00,meteohub,2013-05-17 00:37:00,
2013-05-16 19:42:00,78.3,37.4,30.08,West,270,4.0,7.0,23,0.00,,,0.00,meteohub,2013-05-17 00:42:00,
2013-05-16 19:47:00,78.1,37.2,30.07,West,270,2.0,7.0,23,0.00,,,0.00,meteohub,2013-05-17 00:47:00,
2013-05-16 19:52:00,78.1,37.2,30.07,West,270,2.0,7.0,23,0.00,,,0.00,meteohub,2013-05-17 00:52:00,
2013-05-16 19:57:00,77.9,37.0,30.08,West,270,2.0,7.0,23,0.00,,,0.00,meteohub,2013-05-17 00:57:00,
2013-05-16 20:02:00,77.7,38.1,30.08,NW,315,4.0,5.0,24,0.00,,,0.00,meteohub,2013-05-17 01:02:00,
2013-05-16 20:07:00,77.5,37.9,30.07,West,270,2.0,5.0,24,0.00,,,0.00,meteohub,2013-05-17 01:07:00,
2013-05-16 20:12:00,77.5,37.9,30.07,NW,315,4.0,5.0,24,0.00,,,0.00,meteohub,2013-05-17 01:12:00,
2013-05-16 20:17:00,77.4,37.8,30.07,West,270,4.0,4.0,24,0.00,,,0.00,meteohub,2013-05-17 01:17:00,
2013-05-16 20:22:00,77.2,37.6,30.07,NW,315,4.0,4.0,24,0.00,,,0.00,meteohub,2013-05-17 01:22:00,
2013-05-16 20:27:00,77.2,37.6,30.07,West,270,3.0,4.0,24,0.00,,,0.00,meteohub,2013-05-17 01:27:00,
2013-05-16 20:32:00,77.0,37.4,30.07,NW,315,4.0,6.0,24,0.00,,,0.00,meteohub,2013-05-17 01:32:00,
2013-05-16 20:37:00,77.0,37.4,30.07,NW,315,4.0,6.0,24,0.00,,,0.00,meteohub,2013-05-17 01:37:00,
2013-05-16 20:42:00,76.8,38.3,30.07,West,270,7.0,7.0,25,0.00,,,0.00,meteohub,2013-05-17 01:42:00,
2013-05-16 20:47:00,76.6,38.1,30.07,SW,225,9.0,9.0,25,0.00,,,0.00,meteohub,2013-05-17 01:47:00,
2013-05-16 20:52:00,76.5,36.0,30.08,SW,225,8.0,9.0,23,0.00,,,0.00,meteohub,2013-05-17 01:52:00,
2013-05-16 20:57:00,76.1,34.5,30.08,NW,315,13.0,13.0,22,0.00,,,0.00,meteohub,2013-05-17 01:57:00,
2013-05-16 21:02:00,75.6,34.0,30.08,West,270,4.0,13.0,22,0.00,,,0.00,meteohub,2013-05-17 02:02:00,
2013-05-16 21:07:00,75.2,33.8,30.08,NW,315,8.0,13.0,22,0.00,,,0.00,meteohub,2013-05-17 02:07:00,
2013-05-16 21:12:00,75.0,34.7,30.08,West,270,11.0,13.0,23,0.00,,,0.00,meteohub,2013-05-17 02:12:00,
2013-05-16 21:17:00,74.7,34.3,30.09,West,270,4.0,11.0,23,0.00,,,0.00,meteohub,2013-05-17 02:17:00,
2013-05-16 21:22:00,74.7,34.3,30.09,West,270,4.0,11.0,23,0.00,,,0.00,meteohub,2013-05-17 02:22:00,
2013-05-16 21:27:00,73.9,33.8,30.09,West,270,6.0,11.0,23,0.00,,,0.00,meteohub,2013-05-17 02:27:00,
2013-05-16 21:32:00,73.8,33.6,30.09,West,270,3.0,8.0,23,0.00,,,0.00,meteohub,2013-05-17 02:32:00,
2013-05-16 21:37:00,73.6,33.4,30.09,NW,315,7.0,10.0,23,0.00,,,0.00,meteohub,2013-05-17 02:37:00,
2013-05-16 21:42:00,73.2,28.4,30.09,West,270,11.0,11.0,19,0.00,,,0.00,meteohub,2013-05-17 02:42:00,
2013-05-16 21:47:00,73.0,28.4,30.10,South,180,12.0,14.0,19,0.00,,,0.00,meteohub,2013-05-17 02:47:00,
2013-05-16 21:52:00,72.9,27.0,30.10,NW,315,5.0,14.0,18,0.00,,,0.00,meteohub,2013-05-17 02:52:00,
2013-05-16 21:57:00,72.5,26.6,30.10,SW,225,4.0,14.0,18,0.00,,,0.00,meteohub,2013-05-17 02:57:00,
2013-05-16 22:02:00,72.3,27.7,30.10,NW,315,10.0,13.0,19,0.00,,,0.00,meteohub,2013-05-17 03:02:00,
2013-05-16 22:07:00,72.3,27.7,30.10,NW,315,7.0,10.0,19,0.00,,,0.00,meteohub,2013-05-17 03:07:00,
2013-05-16 22:12:00,72.1,26.2,30.10,South,180,11.0,14.0,18,0.00,,,0.00,meteohub,2013-05-17 03:12:00,
2013-05-16 22:17:00,72.0,26.1,30.10,West,270,10.0,14.0,18,0.00,,,0.00,meteohub,2013-05-17 03:17:00,
2013-05-16 22:22:00,71.8,26.1,30.11,NW,315,7.0,14.0,18,0.00,,,0.00,meteohub,2013-05-17 03:22:00,
2013-05-16 22:27:00,71.6,25.9,30.11,West,270,4.0,11.0,18,0.00,,,0.00,meteohub,2013-05-17 03:27:00,
2013-05-16 22:32:00,71.4,27.0,30.11,NW,315,7.0,12.0,19,0.00,,,0.00,meteohub,2013-05-17 03:32:00,
2013-05-16 22:37:00,71.2,26.8,30.11,NW,315,11.0,12.0,19,0.00,,,0.00,meteohub,2013-05-17 03:37:00,
2013-05-16 22:42:00,71.1,26.8,30.11,West,270,3.0,12.0,19,0.00,,,0.00,meteohub,2013-05-17 03:42:00,
2013-05-16 22:47:00,70.9,26.6,30.11,West,270,4.0,11.0,19,0.00,,,0.00,meteohub,2013-05-17 03:47:00,
2013-05-16 22:52:00,70.7,26.4,30.11,NW,315,8.0,11.0,19,0.00,,,0.00,meteohub,2013-05-17 03:52:00,
2013-05-16 22:57:00,70.7,26.4,30.11,NW,315,4.0,11.0,19,0.00,,,0.00,meteohub,2013-05-17 03:57:00,
2013-05-16 23:01:00,70.5,26.2,30.11,NW,315,8.0,11.0,19,0.00,,,0.00,meteohub,2013-05-17 04:01:00,
2013-05-16 23:02:00,70.5,26.2,30.11,NW,315,8.0,11.0,19,0.00,,,0.00,meteohub,2013-05-17 04:02:00,
2013-05-16 23:04:00,70.5,26.2,30.11,NW,315,8.0,11.0,19,0.00,,,0.00,meteohub,2013-05-17 04:04:00,
2013-05-16 23:05:00,70.5,26.2,30.11,NW,315,8.0,11.0,19,0.00,,,0.00,meteohub,2013-05-17 04:05:00,
2013-05-16 23:10:00,70.3,26.1,30.11,West,270,5.0,11.0,19,0.00,,,0.00,meteohub,2013-05-17 04:10:00,
2013-05-16 23:15:00,70.2,26.1,30.11,NW,315,4.0,8.0,19,0.00,,,0.00,meteohub,2013-05-17 04:15:00,
2013-05-16 23:20:00,70.0,25.9,30.11,NW,315,4.0,12.0,19,0.00,,,0.00,meteohub,2013-05-17 04:20:00,
2013-05-16 23:25:00,70.0,25.9,30.10,West,270,8.0,12.0,19,0.00,,,0.00,meteohub,2013-05-17 04:25:00,
2013-05-16 23:30:00,69.8,25.7,30.10,West,270,8.0,12.0,19,0.00,,,0.00,meteohub,2013-05-17 04:30:00,
2013-05-16 23:35:00,69.6,26.8,30.10,NW,315,2.0,11.0,20,0.00,,,0.00,meteohub,2013-05-17 04:35:00,
2013-05-16 23:40:00,69.6,27.9,30.11,NW,315,4.0,11.0,21,0.00,,,0.00,meteohub,2013-05-17 04:40:00,
2013-05-16 23:45:00,69.6,27.9,30.12,NW,315,8.0,8.0,21,0.00,,,0.00,meteohub,2013-05-17 04:45:00,
2013-05-16 23:50:00,69.4,27.9,30.11,NW,315,4.0,9.0,21,0.00,,,0.00,meteohub,2013-05-17 04:50:00,
2013-05-16 23:55:00,69.3,27.7,30.12,West,270,4.0,9.0,21,0.00,,,0.00,meteohub,2013-05-17 04:55:00,